Weather reports worldwide

Advertisment
Spadeadam, United Kingdom (3224): temperature & dewpoint: 17.10.2020 07:00:00 - 23.10.2020 07:00:00 (BST)Spadeadam, United Kingdom (3224): temperature -20cm: 17.10.2020 07:00:00 - 23.10.2020 07:00:00 (BST)Spadeadam, United Kingdom (3224): wind speed & gusts: 17.10.2020 07:00:00 - 23.10.2020 07:00:00 (BST)Spadeadam, United Kingdom (3224): wind direction: 17.10.2020 07:00:00 - 23.10.2020 07:00:00 (BST)Spadeadam, United Kingdom (3224): reduced air pressure: 17.10.2020 07:00:00 - 23.10.2020 07:00:00 (BST)Spadeadam, United Kingdom (3224): visibility: 17.10.2020 07:00:00 - 23.10.2020 07:00:00 (BST)Spadeadam, United Kingdom (3224): precipitation: 17.10.2020 07:00:00 - 23.10.2020 07:00:00 (BST)
Date & Time tt [°C] td [°C] tt -20cm [°C] ff [km/h] ff [kn] fx [km/h] fx [kn] dd ppp [hPa] vv [km] rr [mm]
23.10.2020 07:00:00 5,5 4,3 - 16 9 - - SSW 1002,2 15 0,0
23.10.2020 06:00:00 5,7 4,6 - 16 9 - - SSW 1002,6 25 0,0
23.10.2020 05:00:00 5,4 4,1 - 13 7 - - S 1003,1 40 0,0
23.10.2020 04:00:00 5,5 4,0 - 15 8 - - SSW 1003,5 40 0,0
23.10.2020 03:00:00 5,2 3,8 - 13 7 - - SW 1004,2 50 0,0
23.10.2020 02:00:00 5,7 4,2 - 13 7 - - SW 1004,8 50 0,0
23.10.2020 01:00:00 5,6 4,6 - 13 7 - - SW 1005,2 45 0,0
23.10.2020 00:00:00 5,8 5,3 - 13 7 - - SW 1005,5 45 0,0
22.10.2020 23:00:00 6,2 6,0 - 11 6 - - WSW 1005,7 17 0,0
22.10.2020 22:00:00 6,5 6,4 - 15 8 - - WSW 1005,9 11 0,0
22.10.2020 21:00:00 6,9 6,9 - 16 9 - - WSW 1005,9 2,6 0,0
22.10.2020 20:00:00 7,2 7,2 - 21 11 - - WSW 1005,6 4,5 0,0
22.10.2020 19:00:00 7,2 7,2 - 22 12 - - W 1005,2 11 1,2
22.10.2020 18:00:00 7,8 7,8 - 29 16 - - WSW 1004,3 3,6 1,0
22.10.2020 17:00:00 8,7 8,6 - 22 12 - - W 1003,4 2,4 0,4
22.10.2020 16:00:00 9,1 8,9 - 21 11 - - W 1002,8 3,9 0,4
22.10.2020 15:00:00 9,2 9,1 - 22 12 - - W 1002,3 2,5 0,4
22.10.2020 14:00:00 9,7 9,4 - 16 9 - - W 1001,7 10 0,0
22.10.2020 13:00:00 9,5 9,1 - 22 12 - - W 1001,3 10 0,0
22.10.2020 12:00:00 9,6 9,4 - 24 13 - - W 1000,7 5 0,0
22.10.2020 11:00:00 9,0 8,8 - 26 14 - - W 1000,1 2,5 0,0
22.10.2020 10:00:00 8,6 8,6 9,7 22 12 - - W 999,6 10 0,0
22.10.2020 09:00:00 8,2 8,2 - 24 13 - - W 998,6 23 0,0
22.10.2020 08:00:00 7,9 7,9 - 24 13 - - W 997,6 14 0,0
22.10.2020 07:00:00 8,4 8,4 - 26 14 - - W 996,5 1,7 0,2
22.10.2020 06:00:00 8,4 8,4 - 22 12 - - WSW 995,8 1,7 0,6
22.10.2020 05:00:00 7,3 7,3 - 26 14 - - SW 995,2 2,4 0,8
22.10.2020 04:00:00 6,9 6,7 - 22 12 - - SW 995,4 2,7 0,4
22.10.2020 03:00:00 7,1 6,8 - 26 14 - - SW 996,0 26 0,6
22.10.2020 02:00:00 7,1 6,7 - 28 15 - - SW 996,0 3,9 0,0
22.10.2020 01:00:00 7,3 7,1 - 26 14 - - WSW 995,9 9 0,2
22.10.2020 00:00:00 8,1 7,4 - 18 10 - - SW 995,7 23 0,0
21.10.2020 23:00:00 8,5 7,9 - 26 14 46 25 WSW 995,3 35 0,2
21.10.2020 22:00:00 8,9 8,8 - 26 14 - - WSW 994,8 12 0,0
21.10.2020 21:00:00 9,7 9,6 - 22 12 - - SW 994,2 4,8 0,2
21.10.2020 20:00:00 9,9 9,7 - 22 12 - - WSW 993,7 4,6 1,0
21.10.2020 19:00:00 9,9 9,6 - 11 6 - - SW 993,1 2,1 0,4
21.10.2020 18:00:00 10,6 9,4 - 15 8 - - WSW 992,3 17 0,0
21.10.2020 17:00:00 11,0 9,7 - 22 12 - - W 991,7 27 0,0
21.10.2020 16:00:00 11,7 9,4 - 18 10 - - W 991,4 28 0,0
21.10.2020 15:00:00 12,7 10,9 - 16 9 - - W 991,2 35 0,0
21.10.2020 14:00:00 12,5 11,3 - 15 8 - - W 991,3 35 0,0
21.10.2020 13:00:00 11,8 11,5 - 9 5 - - W 991,5 50 1,6
21.10.2020 12:00:00 12,1 12,0 - 9 5 - - S 991,5 26 0,0
21.10.2020 11:00:00 11,2 11,1 - 5 3 - - SSE 991,9 0,8 0,6
21.10.2020 10:00:00 11,1 10,9 9,4 11 6 - - SSW 992,5 5 1,4
21.10.2020 09:00:00 10,5 10,2 - 4 2 - - SE 992,7 40 0,0
21.10.2020 08:00:00 9,5 9,0 - 9 5 - - SSE 992,7 27 0,0
21.10.2020 07:00:00 9,0 8,1 - 11 6 - - SSE 992,8 25 0,0
21.10.2020 06:00:00 10,8 9,6 - 11 6 - - SSE 992,7 35 0,0
21.10.2020 05:00:00 10,5 9,3 - 21 11 - - S 993,0 30 0,0
21.10.2020 04:00:00 10,1 8,7 - 16 9 - - S 994,0 23 0,0
21.10.2020 03:00:00 10,2 8,7 - 18 10 - - S 994,3 20 0,0
21.10.2020 02:00:00 10,6 9,2 - 22 12 - - S 994,6 18 0,0
21.10.2020 01:00:00 10,2 8,8 - 18 10 - - S 994,6 10 0,0
21.10.2020 00:00:00 10,3 9,0 - 24 13 - - S 994,6 21 0,0
20.10.2020 23:00:00 10,7 8,9 - 18 10 - - S 994,4 25 0,0
20.10.2020 22:00:00 10,8 9,0 - 21 11 - - S 994,4 24 0,0
20.10.2020 21:00:00 11,4 9,1 - 24 13 - - S 994,4 28 0,0
20.10.2020 20:00:00 11,3 9,5 - 18 10 - - S 994,3 24 0,0
20.10.2020 19:00:00 11,6 9,6 - 16 9 - - S 994,2 26 0,0
20.10.2020 18:00:00 11,2 9,1 - 16 9 - - S 994,2 24 0,0
20.10.2020 17:00:00 12,6 9,5 - 22 12 - - S 993,8 24 0,0
20.10.2020 16:00:00 13,7 10,6 - 22 12 - - SSW 993,7 25 0,0
20.10.2020 15:00:00 14,6 9,5 - 31 17 46 25 S 993,7 40 0,0
20.10.2020 14:00:00 14,7 10,0 - 31 17 - - S 994,2 45 0,0
20.10.2020 13:00:00 15,0 10,8 - 26 14 - - S 994,4 35 0,0
20.10.2020 12:00:00 14,2 11,5 - 26 14 - - SSW 994,6 28 0,0
20.10.2020 11:00:00 11,9 10,4 - 21 11 - - S 994,8 30 0,0
20.10.2020 10:00:00 11,4 10,5 9,0 24 13 - - SSW 994,6 40 0,0
20.10.2020 09:00:00 9,1 9,0 - 5 3 - - SSE 995,2 15 1,0
20.10.2020 08:00:00 7,5 7,3 - 8 4 - - ENE 995,1 1,5 1,4
20.10.2020 07:00:00 7,2 6,8 - 11 6 - - ENE 995,2 4,0 0,2
20.10.2020 06:00:00 7,6 6,6 - 15 8 - - ESE 995,7 11 0,0
20.10.2020 05:00:00 7,4 6,2 - 13 7 - - ENE 996,6 16 0,0
20.10.2020 04:00:00 7,5 5,9 - 13 7 - - E 997,2 35 0,0
20.10.2020 03:00:00 9,2 5,4 - 16 9 - - SSE 998,4 45 0,0
20.10.2020 02:00:00 8,5 6,4 - 9 5 - - SE 999,5 30 0,0
20.10.2020 01:00:00 7,9 6,9 - 11 6 - - ESE 1000,9 35 0,0
20.10.2020 00:00:00 8,0 7,0 - 8 4 - - ENE 1001,4 20 2,0
19.10.2020 23:00:00 8,3 7,0 - 16 9 - - S 1002,3 21 1,6
19.10.2020 22:00:00 8,5 7,2 - 4 2 - - ESE 1003,3 10 0,8
19.10.2020 21:00:00 9,0 7,3 - 21 11 - - S 1003,7 11 0,4
19.10.2020 20:00:00 9,7 7,4 - 21 11 - - S 1004,5 13 0,0
19.10.2020 19:00:00 9,3 7,4 - 16 9 - - S 1004,9 13 0,0
19.10.2020 18:00:00 9,1 7,6 - 21 11 - - SSW 1005,5 11 0,0
19.10.2020 17:00:00 9,5 7,4 - 21 11 - - SSW 1006,4 13 0,0
19.10.2020 16:00:00 9,9 7,5 - 22 12 - - SSW 1007,0 18 0,0
19.10.2020 15:00:00 10,2 7,6 - 22 12 - - SSW 1007,9 10 0,0
19.10.2020 14:00:00 9,9 7,5 - 21 11 - - SSW 1008,9 10 0,0
19.10.2020 13:00:00 9,5 7,3 - 18 10 - - SW 1010,1 13 0,0
19.10.2020 12:00:00 8,9 7,0 - 24 13 - - SSW 1010,9 12 0,0
19.10.2020 11:00:00 8,7 6,8 - 18 10 - - SW 1011,4 13 0,0
19.10.2020 10:00:00 8,4 6,8 8,7 21 11 - - SSW 1011,7 12 0,0
19.10.2020 09:00:00 8,1 7,0 - 18 10 - - SW 1012,0 8 0,0
19.10.2020 08:00:00 8,2 7,3 - 24 13 - - SW 1012,3 8 0,0
19.10.2020 07:00:00 8,0 7,4 - 21 11 - - SSW 1012,8 6 0,0
19.10.2020 06:00:00 8,4 7,9 - 21 11 - - SSW 1013,4 6 0,2
19.10.2020 05:00:00 8,2 7,7 - 18 10 - - SSW 1014,3 7 0,0
19.10.2020 04:00:00 8,0 7,8 - 15 8 - - SSW 1015,1 6 0,2
19.10.2020 03:00:00 8,1 8,0 - 16 9 - - SW 1015,9 4,4 1,0
19.10.2020 02:00:00 7,5 7,3 - 8 4 - - S 1016,7 2,4 0,4
19.10.2020 01:00:00 7,1 6,7 - 4 2 - - W 1017,2 1,2 0,2
19.10.2020 00:00:00 7,2 6,9 - 0 0 - - N 1017,7 2,9 0,0
18.10.2020 23:00:00 6,9 6,5 - 9 5 - - SSW 1018,2 3,4 0,0
18.10.2020 22:00:00 6,8 6,2 - 11 6 - - SW 1018,6 8 0,0
18.10.2020 21:00:00 7,0 6,5 - 15 8 - - SSW 1018,9 9 0,0
18.10.2020 20:00:00 6,7 6,5 - 4 2 - - W 1019,8 5 0,6
18.10.2020 19:00:00 6,9 6,5 - 5 3 - - S 1020,3 4,1 0,2
18.10.2020 18:00:00 7,1 6,5 - 4 2 - - SW 1020,4 24 0,0
18.10.2020 17:00:00 7,6 6,2 - 11 6 - - SW 1020,7 8 0,0
18.10.2020 16:00:00 8,2 5,6 - 8 4 - - SW 1021,1 50 0,0
18.10.2020 15:00:00 8,6 5,2 - 11 6 - - WSW 1021,7 45 0,0
18.10.2020 14:00:00 8,4 4,7 - 2 1 - - WSW 1022,2 50 0,0
18.10.2020 13:00:00 7,0 5,2 - 4 2 - - SSW 1023,2 50 0,0
18.10.2020 12:00:00 6,2 5,0 - 4 2 - - SSE 1024,1 50 0,0
18.10.2020 11:00:00 5,7 4,9 - 4 2 - - E 1024,5 50 0,0
18.10.2020 10:00:00 5,0 4,8 8,7 8 4 - - SE 1024,6 50 0,0
18.10.2020 09:00:00 4,0 3,8 - 4 2 - - ESE 1025,0 50 0,0
18.10.2020 08:00:00 3,5 3,2 - 5 3 - - NE 1024,8 50 0,0
18.10.2020 07:00:00 2,9 2,6 - 11 6 - - NNE 1024,5 50 0,0
18.10.2020 06:00:00 2,5 2,2 - 9 5 - - N 1024,9 50 0,0
18.10.2020 05:00:00 3,6 3,2 - 8 4 - - N 1025,1 50 0,0
18.10.2020 04:00:00 5,4 4,7 - 15 8 - - N 1025,4 45 0,0
18.10.2020 03:00:00 5,8 4,8 - 11 6 - - NNE 1025,7 50 0,0
18.10.2020 02:00:00 5,2 4,7 - 5 3 - - NNE 1025,9 50 0,0
18.10.2020 01:00:00 5,4 5,2 - 13 7 - - NNE 1026,1 50 0,2
18.10.2020 00:00:00 5,1 4,8 - 13 7 - - NNE 1026,0 50 0,0
17.10.2020 23:00:00 5,9 5,7 - 11 6 - - NNE 1025,9 45 0,0
17.10.2020 22:00:00 6,2 6,2 - 4 2 - - NE 1025,7 21 0,2
17.10.2020 21:00:00 5,8 5,6 - 5 3 - - NE 1025,6 15 0,0
17.10.2020 20:00:00 6,2 5,6 - 9 5 - - ENE 1025,4 50 0,0
17.10.2020 19:00:00 7,4 6,5 - 9 5 - - NE 1025,0 50 0,0
17.10.2020 18:00:00 8,2 6,8 - 11 6 - - NNE 1024,7 50 0,0
17.10.2020 17:00:00 8,8 7,2 - 11 6 - - NNE 1024,5 50 0,0
17.10.2020 16:00:00 9,4 7,5 - 15 8 - - ENE 1024,7 50 0,0
17.10.2020 15:00:00 9,6 8,1 - 13 7 - - NE 1024,5 35 0,0
17.10.2020 14:00:00 9,8 8,2 - 16 9 - - NE 1024,5 19 0,0
17.10.2020 13:00:00 9,1 8,1 - 13 7 - - NE 1024,8 22 0,0
17.10.2020 12:00:00 8,6 7,8 - 11 6 - - NE 1025,0 8 0,0
17.10.2020 11:00:00 8,1 7,5 - 15 8 - - NE 1024,8 35 0,0
17.10.2020 10:00:00 7,5 6,9 8,7 11 6 - - NE 1024,8 50 0,0
17.10.2020 09:00:00 7,0 6,9 - 15 8 - - NNE 1024,8 30 0,2
17.10.2020 08:00:00 6,6 6,5 - 9 5 - - NE 1025,0 3,5 0,0
17.10.2020 07:00:00 6,0 5,9 - 4 2 - - NE 1025,0 4,8 0,0

tt = temperature
td = dewpoint
tt -20cm = temperature -20cm
ff = wind speed
fx = gusts
dd = wind direction
ppp = reduced air pressure
vv = visibility
rr = precipitation

Next stations